Weather History for Crockett, TX

Change the Weather History Date:

Sunday, December 9, 2012

  Actual Average (KLFK) Record (KLFK)
Temperature  
Mean Temperature 66 °F 51 °F  
Max Temperature 78 °F 62 °F 85 °F (1945)
Min Temperature 53 °F 40 °F 15 °F (1917)
Degree Days  
Heating Degree Days 0 14  
Month to date heating degree days 120  
Since 1 July heating degree days 427  
Cooling Degree Days 0 0  
Month to date cooling degree days 4  
Year to date cooling degree days 2587  
Growing Degree Days 16 (Base 50)    
Moisture  
Dew Point 62 °F    
Average Humidity 85    
Maximum Humidity 100    
Minimum Humidity 61    
Precipitation  
Precipitation 0.08 in 0.14 in 2.25 in (1926)
Month to date precipitation 1.38  
Year to date precipitation 45.89  
Snow  
Snow 0.00 in - - ()
Month to date snowfall  
Since 1 July snowfall  
Snow Depth -    
Sea Level Pressure  
Sea Level Pressure 29.88 in    
Wind  
Wind Speed 3 mph (SW)    
Max Wind Speed 14 mph    
Max Gust Speed 21 mph    
Visibility 8 miles    
Events Rain , Thunderstorm    
T = Trace of Precipitation, MM = Missing Value Source: NWS Daily Summary

Daily Weather History Graph

Daily Weather History Graph

Search for Another Location

Airport:

Trip Planner

Search our weather history database for the weather conditions in past years. The results will help you decide how hot, cold, wet, or windy it might be!

Date:

Astronomy

Dec. 09, 2012 Rise Set
Actual Time 7:09 AM CST 5:19 PM CST
Civil Twilight 6:42 AM CST 5:45 PM CST
Nautical Twilight 6:12 AM CST 6:15 PM CST
Astronomical Twilight 5:42 AM CST 6:45 PM CST
Moon 2:54 AM CST (12/9) 2:16 PM CST (12/9)
Length of Visible Light 11h 03m
Length of Day
10h 09m
Waning Crescent, 18% of the Moon is Illuminated
Dec 9
Waning Crescent
Dec 13
New
Dec 19
First Quarter
Dec 28
Full
Jan 4
Last Quarter

Hourly Weather History & Observations

Time (CST) Temp. Dew Point Humidity Pressure Visibility Wind Dir Wind Speed Gust Speed Precip Events Conditions
12:15 AM 68.0 °F 64.4 °F 88% 29.89 in 10.0 mi Calm Calm - N/A   Overcast
12:35 AM 68.0 °F 64.4 °F 88% 29.89 in 10.0 mi South 5.8 mph - N/A   Overcast
12:55 AM 68.0 °F 64.4 °F 88% 29.89 in 10.0 mi Calm Calm - N/A   Overcast
1:15 AM 66.2 °F 66.2 °F 100% 29.89 in 10.0 mi Calm Calm - N/A   Overcast
1:35 AM 66.2 °F 66.2 °F 100% 29.88 in 9.0 mi Calm Calm - N/A   Overcast
1:55 AM 68.0 °F 66.2 °F 94% 29.88 in 9.0 mi Calm Calm - N/A   Mostly Cloudy
2:15 AM 66.2 °F 66.2 °F 100% 29.88 in 9.0 mi SSE 4.6 mph - N/A   Mostly Cloudy
2:35 AM 66.2 °F 64.4 °F 94% 29.88 in 10.0 mi Calm Calm - N/A   Scattered Clouds
2:55 AM 66.2 °F 64.4 °F 94% 29.88 in 8.0 mi Calm Calm - N/A   Partly Cloudy
3:15 AM 66.2 °F 64.4 °F 94% 29.88 in 8.0 mi South 3.5 mph - N/A   Clear
3:35 AM 66.2 °F 66.2 °F 100% 29.88 in 9.0 mi Calm Calm - N/A   Mostly Cloudy
3:55 AM 66.2 °F 64.4 °F 94% 29.88 in 9.0 mi Calm Calm - N/A   Mostly Cloudy
4:15 AM 66.2 °F 64.4 °F 94% 29.88 in 10.0 mi South 3.5 mph - N/A   Scattered Clouds
4:35 AM 66.2 °F 64.4 °F 94% 29.88 in 9.0 mi Calm Calm - N/A   Mostly Cloudy
4:55 AM 66.2 °F 64.4 °F 94% 29.88 in 8.0 mi Calm Calm - N/A   Scattered Clouds
5:15 AM 66.2 °F 64.4 °F 94% 29.89 in 9.0 mi Calm Calm - N/A   Mostly Cloudy
5:35 AM 66.2 °F 64.4 °F 94% 29.89 in 8.0 mi Calm Calm - N/A   Scattered Clouds
5:55 AM 66.2 °F 64.4 °F 94% 29.90 in 8.0 mi Calm Calm - N/A   Mostly Cloudy
6:15 AM 66.2 °F 66.2 °F 100% 29.90 in 7.0 mi Calm Calm - N/A   Overcast
6:35 AM 66.2 °F 66.2 °F 100% 29.90 in 9.0 mi South 3.5 mph - N/A   Overcast
6:55 AM 66.2 °F 66.2 °F 100% 29.90 in 8.0 mi Calm Calm - N/A   Overcast
7:15 AM 66.2 °F 66.2 °F 100% 29.90 in 5.0 mi Calm Calm - N/A   Overcast
7:35 AM 66.2 °F 66.2 °F 100% 29.91 in 5.0 mi South 3.5 mph - N/A   Overcast
7:55 AM 66.2 °F 66.2 °F 100% 29.91 in 5.0 mi South 6.9 mph - N/A   Overcast
8:15 AM 68.0 °F 66.2 °F 94% 29.91 in 6.0 mi Calm Calm - N/A   Overcast
8:35 AM 68.0 °F 66.2 °F 94% 29.91 in 6.0 mi Calm Calm - N/A   Overcast
8:55 AM 69.8 °F 66.2 °F 88% 29.92 in 6.0 mi South 6.9 mph - N/A   Overcast
9:15 AM 69.8 °F 66.2 °F 88% 29.93 in 5.0 mi South 6.9 mph - N/A   Overcast
9:35 AM 69.8 °F 66.2 °F 88% 29.93 in 5.0 mi Calm Calm - N/A   Overcast
9:55 AM 69.8 °F 66.2 °F 88% 29.93 in 5.0 mi South 5.8 mph - N/A   Overcast
10:15 AM 71.6 °F 66.2 °F 83% 29.92 in 5.0 mi South 8.1 mph - N/A   Mostly Cloudy
10:35 AM 71.6 °F 66.2 °F 83% 29.92 in 7.0 mi South 5.8 mph - N/A   Mostly Cloudy
10:55 AM 71.6 °F 66.2 °F 83% 29.92 in 9.0 mi SSW 4.6 mph - N/A   Mostly Cloudy
11:15 AM 73.4 °F 66.2 °F 78% 29.91 in 10.0 mi SSW 6.9 mph - N/A   Mostly Cloudy
11:35 AM 75.2 °F 66.2 °F 73% 29.89 in 9.0 mi South 12.7 mph 16.1 mph N/A   Mostly Cloudy
11:55 AM 75.2 °F 66.2 °F 73% 29.88 in 8.0 mi SSW 11.5 mph 20.7 mph N/A   Mostly Cloudy
12:15 PM 73.4 °F 66.2 °F 78% 29.87 in 9.0 mi SSW 8.1 mph - N/A   Mostly Cloudy
12:35 PM 75.2 °F 66.2 °F 73% 29.86 in 8.0 mi SSW 8.1 mph - N/A   Partly Cloudy
12:55 PM 77.0 °F 66.2 °F 69% 29.85 in 8.0 mi SSW 13.8 mph - N/A   Scattered Clouds
1:15 PM 77.0 °F 66.2 °F 69% 29.84 in 9.0 mi SSW 9.2 mph - N/A   Mostly Cloudy
1:55 PM 77.0 °F 66.2 °F 69% 29.82 in 6.0 mi SSW 8.1 mph - N/A   Haze
2:15 PM 78.8 °F 66.2 °F 65% 29.82 in 8.0 mi SSW 9.2 mph - N/A   Scattered Clouds
2:55 PM 78.8 °F 66.2 °F 65% 29.80 in 8.0 mi SSW 11.5 mph - N/A   Scattered Clouds
3:15 PM 78.8 °F 64.4 °F 61% 29.79 in 8.0 mi SSW 13.8 mph 20.7 mph N/A   Partly Cloudy
3:35 PM 78.8 °F 64.4 °F 61% 29.80 in 9.0 mi SSW 11.5 mph 17.3 mph N/A   Clear
3:55 PM 77.0 °F 66.2 °F 69% 29.81 in 9.0 mi SSW 5.8 mph - N/A   Clear
4:15 PM 77.0 °F 66.2 °F 69% 29.80 in 7.0 mi South 6.9 mph - N/A   Scattered Clouds
4:55 PM 75.2 °F 66.2 °F 73% 29.79 in 7.0 mi Calm Calm - N/A Thunderstorm Partly Cloudy
5:15 PM 73.4 °F 66.2 °F 78% 29.81 in 8.0 mi Calm Calm - N/A   Mostly Cloudy
5:35 PM 71.6 °F 64.4 °F 78% 29.81 in 10.0 mi Calm Calm - N/A   Mostly Cloudy
5:55 PM 69.8 °F 62.6 °F 78% 29.81 in 10.0 mi NW 6.9 mph - N/A Thunderstorm Scattered Clouds
6:15 PM 68.0 °F 62.6 °F 83% 29.82 in 9.0 mi NW 5.8 mph - N/A Thunderstorm Partly Cloudy
6:35 PM 66.2 °F 62.6 °F 88% 29.83 in 6.0 mi NW 6.9 mph - N/A Thunderstorm Scattered Clouds
6:55 PM 64.4 °F 57.2 °F 77% 29.84 in 9.0 mi NNW 9.2 mph - N/A Thunderstorm Mostly Cloudy
7:15 PM 64.4 °F 55.4 °F 73% 29.88 in 10.0 mi Calm Calm - N/A Thunderstorm Mostly Cloudy
7:35 PM 62.6 °F 55.4 °F 77% 29.89 in 10.0 mi Calm Calm - N/A   Overcast
7:55 PM 62.6 °F 55.4 °F 77% 29.89 in 4.0 mi Calm Calm - N/A Rain Rain
8:15 PM 59.0 °F 53.6 °F 82% 29.90 in 2.0 mi NW 3.5 mph - N/A Rain , Thunderstorm Light Rain
8:35 PM 57.2 °F 53.6 °F 88% 29.90 in 10.0 mi NNW 3.5 mph - 0.05 in   Mostly Cloudy
8:55 PM 57.2 °F 53.6 °F 88% 29.90 in 10.0 mi NNW 6.9 mph - 0.05 in   Overcast
9:15 PM 57.2 °F 51.8 °F 82% 29.90 in 9.0 mi NNW 9.2 mph - N/A   Overcast
9:35 PM 57.2 °F 51.8 °F 82% 29.92 in 10.0 mi NW 3.5 mph - N/A   Scattered Clouds
9:55 PM 57.2 °F 51.8 °F 82% 29.93 in 5.0 mi NNW 6.9 mph - 0.01 in Rain , Thunderstorm Light Rain
10:15 PM 55.4 °F 51.8 °F 88% 29.94 in 9.0 mi North 9.2 mph - 0.01 in   Partly Cloudy
10:35 PM 55.4 °F 51.8 °F 88% 29.93 in 10.0 mi NNW 8.1 mph - 0.01 in Thunderstorm Clear
10:55 PM 55.4 °F 50.0 °F 82% 29.94 in 10.0 mi North 5.8 mph - 0.01 in   Clear
11:15 PM 55.4 °F 50.0 °F 82% 29.93 in 10.0 mi NNW 6.9 mph - N/A   Scattered Clouds
11:35 PM 53.6 °F 48.2 °F 82% 29.94 in 10.0 mi NW 6.9 mph - N/A Thunderstorm Mostly Cloudy
11:55 PM 53.6 °F 48.2 °F 82% 29.94 in 5.0 mi NNW 8.1 mph - 0.01 in Rain , Thunderstorm Rain